OE5RPP Weather Reports


time (UTC)temp
F
wind
direction
speed
knots
gust
knots
rain 1hr
in
rain 24hr
in
rain mn
in
humidity
%
barometer
mb
20260502163648 80 0 3.5 2.6 0.00 0.00 0.00 17 1020.9
20260502162649 80 67 3.5 3.5 0.00 0.00 0.00 15 1020.9
20260502161648 80 90 2.6 3.5 0.00 0.00 0.00 15 1021.9
20260502160648 81 67 2.6 0.0 0.00 0.00 0.00 15 1021.9
20260502151649 80 67 3.5 2.6 0.00 0.00 0.00 17 1021.9
20260502150649 79 90 2.6 3.5 0.00 0.00 0.00 17 1021.9
20260502130648 78 0 3.5 5.2 0.00 0.00 0.00 17 1022.9
20260502123648 76 112 3.5 3.5 0.00 0.00 0.00 18 1023.9
20260502122647 76 0 4.3 3.5 0.00 0.00 0.00 18 1023.9
20260502121648 76 0 5.2 3.5 0.00 0.00 0.00 18 1023.9
20260502120648 76 112 2.6 2.6 0.00 0.00 0.00 18 1023.9
20260502115647 74 0 3.5 2.6 0.00 0.00 0.00 18 1023.9
20260502114647 74 45 3.5 3.5 0.00 0.00 0.00 18 1023.9
20260502113647 74 0 5.2 7.0 0.00 0.00 0.00 18 1023.9
20260502112648 74 0 3.5 3.5 0.00 0.00 0.00 18 1024.9
20260502111647 73 0 4.3 3.5 0.00 0.00 0.00 18 1024.9
20260502110647 74 0 4.3 5.2 0.00 0.00 0.00 18 1024.9
20260502105647 72 135 2.6 3.5 0.00 0.00 0.00 18 1024.9
20260502104647 71 67 3.5 2.6 0.00 0.00 0.00 20 1024.9
20260502103646 71 45 5.2 7.0 0.00 0.00 0.00 20 1024.9
20260502102646 71 0 3.5 3.5 0.00 0.00 0.00 18 1024.9
20260502101428 70 337 4.3 4.3 0.00 0.00 0.00 20 1024.9
20260502100430 68 67 3.5 3.5 0.00 0.00 0.00 20 1024.9
20260502091430 65 0 5.2 4.3 0.00 0.00 0.00 21 1025.9
20260502090430 65 45 2.6 1.7 0.00 0.00 0.00 21 1025.9
20260502071430 53 0 2.6 2.6 0.00 0.00 0.00 42 1025.9
20260502070430 52 0 0.9 0.9 0.00 0.00 0.00 49 1025.9
20260502065429 50 0 0.9 1.7 0.00 0.00 0.00 51 1026.9
20260502064430 49 0 0.0 0.0 0.00 0.00 0.00 54 1026.9
20260502063430 48 22 0.0 0.0 0.00 0.00 0.00 56 1026.9
20260502062429 47 22 0.0 0.0 0.00 0.00 0.00 59 1026.9
20260502061429 46 22 0.0 0.0 0.00 0.00 0.00 59 1026.9
20260502060429 45 22 0.0 0.0 0.00 0.00 0.00 59 1026.9
20260502055430 43 22 0.0 0.0 0.00 0.00 0.00 60 1026.9
20260502054429 42 22 0.0 0.0 0.00 0.00 0.00 60 1026.9
20260502053429 40 22 0.0 0.0 0.00 0.00 0.00 59 1026.9
20260502052430 38 22 0.0 0.0 0.00 0.00 0.00 58 1026.9
20260502051429 36 22 0.0 0.0 0.00 0.00 0.00 57 1026.9
20260502050429 35 22 0.0 0.0 0.00 0.00 0.00 57 1026.9
20260502045429 34 22 0.0 0.0 0.00 0.00 0.00 56 1026.9
20260502044430 33 22 0.0 0.0 0.00 0.00 0.00 56 1026.9
20260502043430 33 22 0.0 0.0 0.00 0.00 0.00 55 1026.9
20260502042429 32 22 0.0 0.0 0.00 0.00 0.00 55 1026.9
20260502041429 32 22 0.0 0.0 0.00 0.00 0.00 55 1026.9
20260502040429 32 22 0.0 0.0 0.00 0.00 0.00 54 1026.9
20260502035430 32 22 0.0 0.0 0.00 0.00 0.00 54 1026.9
20260502034429 33 22 0.0 0.0 0.00 0.00 0.00 54 1026.9
20260502033429 33 22 0.0 0.0 0.00 0.00 0.00 54 1026.9
20260502032429 33 22 0.0 0.0 0.00 0.00 0.00 54 1026.9
20260502031430 33 22 0.0 0.0 0.00 0.00 0.00 54 1026.9
20260502030430 33 22 0.0 0.0 0.00 0.00 0.00 54 1026.9
20260502025429 33 22 0.0 0.0 0.00 0.00 0.00 53 1026.9
20260502024429 33 22 0.0 0.0 0.00 0.00 0.00 53 1026.9
20260502023429 33 22 0.0 0.0 0.00 0.00 0.00 53 1026.9
20260502022430 34 22 0.0 0.0 0.00 0.00 0.00 51 1026.9
20260502021429 34 22 0.0 0.0 0.00 0.00 0.00 51 1026.9
20260502020429 34 22 0.0 0.0 0.00 0.00 0.00 51 1026.9
20260502015429 34 22 0.0 0.0 0.00 0.00 0.00 51 1026.9
20260502014430 34 22 0.0 0.0 0.00 0.00 0.00 51 1026.9
20260502013430 35 22 0.0 0.0 0.00 0.00 0.00 51 1026.9
20260502012429 35 22 0.0 0.0 0.00 0.00 0.00 50 1026.9
20260502011428 35 22 0.0 0.0 0.00 0.00 0.00 48 1027.9
20260502010428 35 22 0.0 0.0 0.00 0.00 0.00 48 1027.9
20260502005430 35 22 0.0 0.0 0.00 0.00 0.00 47 1027.9
20260502004429 35 22 0.0 0.0 0.00 0.00 0.00 47 1027.9
20260502003429 36 22 0.0 0.0 0.00 0.00 0.00 46 1027.9
20260502002430 36 22 0.0 0.0 0.00 0.00 0.00 47 1027.9
20260502001429 36 22 0.0 0.0 0.00 0.00 0.00 46 1027.9
20260502000431 36 22 0.0 0.0 0.00 0.00 0.00 45 1027.9
20260501235428 37 22 0.0 0.0 0.00 0.00 0.00 45 1027.9
20260501234429 37 22 0.0 0.0 0.00 0.00 0.00 43 1027.9
20260501233429 38 22 0.0 0.0 0.00 0.00 0.00 43 1027.9
20260501232429 38 22 0.0 0.0 0.00 0.00 0.00 41 1027.9
20260501231430 38 22 0.0 0.0 0.00 0.00 0.00 40 1027.9
20260501230430 38 22 0.0 0.0 0.00 0.00 0.00 40 1027.9
20260501225429 38 22 0.0 0.0 0.00 0.00 0.00 40 1027.9
20260501224428 39 22 0.0 0.0 0.00 0.00 0.00 39 1027.9
20260501223429 39 22 0.0 0.0 0.00 0.00 0.00 39 1027.9
20260501222429 40 22 0.0 0.0 0.00 0.00 0.00 39 1027.9
20260501221429 40 22 0.0 0.0 0.00 0.00 0.00 37 1027.9
20260501220429 40 22 0.0 0.0 0.00 0.00 0.00 37 1027.9
20260501215430 40 22 0.0 0.0 0.00 0.00 0.00 35 1027.9
20260501214429 41 22 0.0 0.0 0.00 0.00 0.00 34 1027.9
20260501213429 41 22 0.0 0.0 0.00 0.00 0.00 31 1027.9
20260501212430 42 22 0.0 0.0 0.00 0.00 0.00 31 1027.9
20260501211429 43 22 0.0 0.0 0.00 0.00 0.00 30 1027.9
20260501210429 43 22 0.0 0.0 0.00 0.00 0.00 30 1027.9
20260501205428 43 22 0.0 0.0 0.00 0.00 0.00 27 1027.9
20260501204430 44 22 0.0 0.0 0.00 0.00 0.00 30 1027.9
20260501203430 45 22 0.0 0.0 0.00 0.00 0.00 26 1027.9
20260501202429 45 22 0.0 0.0 0.00 0.00 0.00 26 1027.9
20260501201428 46 22 0.0 0.0 0.00 0.00 0.00 26 1027.9
20260501200428 47 22 0.0 0.0 0.00 0.00 0.00 22 1027.9
20260501195430 48 22 0.0 0.0 0.00 0.00 0.00 26 1027.9
20260501194429 49 22 0.0 0.0 0.00 0.00 0.00 22 1027.9
20260501193429 49 22 0.0 0.0 0.00 0.00 0.00 22 1027.9
20260501192428 51 22 0.0 0.0 0.00 0.00 0.00 22 1027.9
20260501191430 51 22 0.0 0.0 0.00 0.00 0.00 22 1027.9
20260501190430 52 22 0.0 0.0 0.00 0.00 0.00 21 1027.9
20260501185428 53 22 0.0 0.0 0.00 0.00 0.00 21 1027.9
20260501184430 54 22 0.0 0.0 0.00 0.00 0.00 21 1027.9
20260501183430 56 22 0.0 0.0 0.00 0.00 0.00 23 1027.9
20260501182429 58 22 0.0 0.0 0.00 0.00 0.00 23 1027.9
20260501181428 60 22 0.0 0.0 0.00 0.00 0.00 22 1027.9
20260501180428 62 22 0.0 0.0 0.00 0.00 0.00 22 1027.9
20260501175429 65 22 0.0 0.0 0.00 0.00 0.00 21 1027.9
20260501174429 67 22 0.0 0.0 0.00 0.00 0.00 21 1027.9
20260501173429 67 22 0.9 2.6 0.00 0.00 0.00 21 1027.9
20260501172430 68 67 2.6 2.6 0.00 0.00 0.00 20 1027.9
20260501171429 70 22 3.5 3.5 0.00 0.00 0.00 20 1027.9
20260501170429 70 90 2.6 0.9 0.00 0.00 0.00 20 1027.9
20260501165428 71 0 2.6 2.6 0.00 0.00 0.00 20 1027.9
20260501164429 71 90 4.3 3.5 0.00 0.00 0.00 18 1027.9